Regional Weather Roundup
Issued by NWS Midland/Odessa, TX

Skip options and go directly to product.
Home | Oldest Version | Next Version | Current Version | All | Text Only | Save Text | Print | Product List | Glossary On

Skip product version selection by date and time.   
694
ASUS44 KMAF 260801
RWRMAF
MIDLAND AREA WEATHER ROUNDUP
NATIONAL WEATHER SERVICE MIDLAND TX
300 AM CDT SUN MAR 26 2017

...IN SOUTHWEST TEXAS AND SOUTHEAST NEW MEXICO...

CITY           SKY/WX    TMP DP  RH WIND       PRES   REMARKS
ALPINE         CLEAR     61  24  24 W6        29.96R
ANDREWS        FAIR      55  29  37 S6        29.82F
ARTESIA        CLOUDY    50  27  40 S10       29.81S
BIG SPRING     CLEAR     58  30  34 SE9       29.84F
CARLSBAD       CLEAR     51  27  39 S10       29.80S
DRYDEN           N/A     59  35  40 N7        29.82F
FORT STOCKTON  CLEAR     62  33  33 S16       29.81F
GUAD PASS        N/A    N/A N/A N/A MISG        N/A
HOBBS          CLEAR     54  25  32 S8        29.84F
MARFA          CLEAR     41  14  33 NW10      29.95R WCI  35
MIDLAND AIRPK  CLEAR     61  28  29 S7        29.83F
MIDLAND INTL   CLEAR     59  27  29 S7        29.81F
ODESSA         CLEAR     64  27  24 S15       29.82F
PECOS          CLEAR     56  26  31 NW6G21    29.80R
PRESIDIO       FAIR      66  16  14 N8        29.84R
SEMINOLE       CLEAR     50  28  43 CALM      29.83F
SNYDER         CLEAR     57  37  46 SE10      29.84F
WINK           CLEAR     57  28  33 SE6       29.79F
$$
...OTHER STATIONS IN TEXAS...

CITY           SKY/WX    TMP DP  RH WIND       PRES   REMARKS
ABILENE        CLEAR     55  41  59 SE12      29.84F
AMARILLO       CLEAR     47  31  53 S16       29.81F
AUSTIN         CLOUDY    63  58  83 S6        29.89F
BROWNSVILLE    CLEAR     71  69  93 S10       29.89F
CORPUS CHRISTI MOCLDY    71  70  96 S16       29.88F
DALLAS FTW     CLEAR     57  47  69 E7        29.87F
DEL RIO        PTCLDY    63  48  58 SE6       29.83S
EL PASO        CLOUDY    66  21  18 NW16G24   29.90R
HOUSTON INT    CLOUDY    67  65  93 CALM      29.92F FOG
LUBBOCK        CLEAR     53  34  48 SE12      29.82F
SAN ANGELO     PTCLDY    59  32  36 S9        29.83F
SAN ANTONIO    CLOUDY    68  65  90 S10       29.89S
WACO           CLEAR     53  50  89 CALM      29.91S
WICHITA FALLS  NOT AVBL
$$
...OTHER LOCATIONS IN NEW MEXICO...

CITY           SKY/WX    TMP DP  RH WIND       PRES   REMARKS
ALAMAGORDO     CLOUDY    63  16  16 W13       29.89F
ALBUQUERQUE    CLOUDY    49  30  48 CALM      29.96F
CANNON AFB     CLOUDY    50  26  38 S10       29.79F
CLOVIS         CLOUDY    46  27  46 S5        29.81F
HOLLOMAN AFB   CLOUDY    62  18  17 NW8       29.92S
ROSWELL        PTCLDY    51  24  34 W8          N/A
RUIDOSO        CLOUDY    52  14  22 W16G24    29.96S
SANTA FE       CLOUDY    42  32  67 W16       29.92F WCI  34
TRUTH OR CONSE MOCLDY    56  24  29 NW10      29.92S
TUCUMCARI      CLEAR     54  25  32 SW16      29.76F
$$

  • National Weather Service
  • Southern Region Headquarters
  • 819 Taylor Street, Room 10A06
  • Fort Worth, TX 76102
  • Page Author: NWS Fort Worth
  • Web Master: SR-SRH.Webmaster@noaa.gov
  •  
  • Page last modified: 30-Sep-2016 6:36 PM UTC
USA.gov is the U.S. government's official web portal to all federal, state and local government web resources and services.